| time (UTC) | temp C | wind direction | speed KPH | gust KPH | rain 1hr cm | rain 24hr cm | rain mn cm | humidity % | barometer mb |
| 20260906233832 | 33 | 173 | 1.6 | 12.9 | 0.00 | 0.00 | 0.00 | 49 | 1011.7 |
| 20260906233330 | 34 | 173 | 3.2 | 12.9 | 0.00 | 0.00 | 0.00 | 49 | 1011.7 |
| 20260906232826 | 34 | 173 | 3.2 | 8.0 | 0.00 | 0.00 | 0.00 | 49 | 1011.6 |
| 20260906232324 | 33 | 174 | 1.6 | 11.3 | 0.00 | 0.00 | 0.00 | 49 | 1011.6 |
| 20260906231822 | 33 | 173 | 4.8 | 14.5 | 0.00 | 0.00 | 0.00 | 49 | 1011.7 |
| 20260906231320 | 34 | 159 | 8.0 | 12.9 | 0.00 | 0.00 | 0.00 | 48 | 1011.7 |
| 20260906230816 | 34 | 157 | 3.2 | 9.7 | 0.00 | 0.00 | 0.00 | 48 | 1011.8 |
| 20260906230314 | 34 | 157 | 1.6 | 11.3 | 0.00 | 0.00 | 0.00 | 48 | 1011.8 |
| 20260906225812 | 35 | 157 | 3.2 | 11.3 | 0.00 | 0.00 | 0.00 | 47 | 1011.9 |
| 20260906225310 | 35 | 158 | 1.6 | 11.3 | 0.00 | 0.00 | 0.00 | 47 | 1011.9 |
| 20260906224806 | 35 | 158 | 3.2 | 11.3 | 0.00 | 0.00 | 0.00 | 47 | 1011.9 |
| 20260906224304 | 35 | 157 | 3.2 | 9.7 | 0.00 | 0.00 | 0.00 | 46 | 1011.9 |
| 20260906223802 | 35 | 158 | 1.6 | 12.9 | 0.00 | 0.00 | 0.00 | 46 | 1011.8 |
| 20260906223300 | 35 | 157 | 3.2 | 12.9 | 0.00 | 0.00 | 0.00 | 44 | 1011.8 |
| 20260906222756 | 35 | 154 | 1.6 | 8.0 | 0.00 | 0.00 | 0.00 | 44 | 1011.8 |
| 20260906222254 | 35 | 154 | 1.6 | 9.7 | 0.00 | 0.00 | 0.00 | 43 | 1011.9 |
| 20260906221750 | 36 | 154 | 1.6 | 9.7 | 0.00 | 0.00 | 0.00 | 44 | 1012.0 |
| 20260906221248 | 36 | 154 | 1.6 | 4.8 | 0.00 | 0.00 | 0.00 | 43 | 1012.0 |
| 20260906220746 | 36 | 0.0 | 9.7 | 0.00 | 0.00 | 0.00 | 43 | 1012.1 | |
| 20260906220244 | 36 | 0.0 | 9.7 | 0.00 | 0.00 | 0.00 | 43 | 1012.2 | |
| 20260906215740 | 35 | 154 | 1.6 | 8.0 | 0.00 | 0.00 | 0.00 | 44 | 1012.1 |
| 20260906215238 | 35 | 154 | 1.6 | 4.8 | 0.00 | 0.00 | 0.00 | 43 | 1012.2 |
| 20260906214736 | 35 | 0.0 | 3.2 | 0.00 | 0.00 | 0.00 | 43 | 1012.2 | |
| 20260906214234 | 35 | 0.0 | 4.8 | 0.00 | 0.00 | 0.00 | 45 | 1012.1 | |
| 20260906213730 | 35 | 0.0 | 4.8 | 0.00 | 0.00 | 0.00 | 45 | 1012.3 | |
| 20260906213228 | 35 | 0.0 | 3.2 | 0.00 | 0.00 | 0.00 | 45 | 1012.4 | |
| 20260906212726 | 34 | 0.0 | 3.2 | 0.00 | 0.00 | 0.00 | 46 | 1012.5 | |
| 20260906212224 | 34 | 0.0 | 9.7 | 0.00 | 0.00 | 0.00 | 46 | 1012.5 | |
| 20260906211720 | 34 | 154 | 1.6 | 9.7 | 0.00 | 0.00 | 0.00 | 46 | 1012.5 |
| 20260906211218 | 35 | 0.0 | 3.2 | 0.00 | 0.00 | 0.00 | 45 | 1012.6 | |
| 20260906210716 | 35 | 0.0 | 9.7 | 0.00 | 0.00 | 0.00 | 45 | 1012.7 | |
| 20260906210214 | 35 | 154 | 1.6 | 9.7 | 0.00 | 0.00 | 0.00 | 45 | 1012.7 |
| 20260906205710 | 35 | 0.0 | 1.6 | 0.00 | 0.00 | 0.00 | 45 | 1012.7 | |
| 20260906205208 | 35 | 0.0 | 8.0 | 0.00 | 0.00 | 0.00 | 45 | 1012.8 | |
| 20260906204706 | 35 | 0.0 | 8.0 | 0.00 | 0.00 | 0.00 | 45 | 1012.9 | |
| 20260906204204 | 35 | 0.0 | 8.0 | 0.00 | 0.00 | 0.00 | 46 | 1012.9 | |
| 20260906203700 | 35 | 154 | 3.2 | 8.0 | 0.00 | 0.00 | 0.00 | 45 | 1013.1 |
| 20260906203158 | 35 | 0.0 | 3.2 | 0.00 | 0.00 | 0.00 | 45 | 1013.0 | |
| 20260906202656 | 35 | 0.0 | 3.2 | 0.00 | 0.00 | 0.00 | 44 | 1013.0 | |
| 20260906202154 | 35 | 0.0 | 3.2 | 0.00 | 0.00 | 0.00 | 43 | 1013.2 | |
| 20260906201650 | 35 | 0.0 | 4.8 | 0.00 | 0.00 | 0.00 | 45 | 1013.2 | |
| 20260906201148 | 35 | 0.0 | 4.8 | 0.00 | 0.00 | 0.00 | 46 | 1013.2 | |
| 20260906200646 | 35 | 0.0 | 12.9 | 0.00 | 0.00 | 0.00 | 46 | 1013.3 | |
| 20260906200144 | 35 | 154 | 3.2 | 12.9 | 0.00 | 0.00 | 0.00 | 47 | 1013.5 |
| 20260906195640 | 34 | 0.0 | 4.8 | 0.00 | 0.00 | 0.00 | 47 | 1013.4 | |
| 20260906195138 | 34 | 0.0 | 12.9 | 0.00 | 0.00 | 0.00 | 48 | 1013.4 | |
| 20260906194636 | 33 | 0.0 | 12.9 | 0.00 | 0.00 | 0.00 | 51 | 1013.5 | |
| 20260906194134 | 33 | 153 | 3.2 | 9.7 | 0.00 | 0.00 | 0.00 | 50 | 1013.6 |
| 20260906193630 | 33 | 153 | 3.2 | 8.0 | 0.00 | 0.00 | 0.00 | 50 | 1013.6 |
| 20260906193128 | 34 | 0.0 | 11.3 | 0.00 | 0.00 | 0.00 | 50 | 1013.6 | |
| 20260906192624 | 35 | 154 | 3.2 | 11.3 | 0.00 | 0.00 | 0.00 | 48 | 1013.8 |
| 20260906192122 | 35 | 0.0 | 6.4 | 0.00 | 0.00 | 0.00 | 48 | 1013.8 | |
| 20260906191620 | 35 | 1.6 | 6.4 | 0.00 | 0.00 | 0.00 | 48 | 1013.8 | |
| 20260906191118 | 35 | 1.6 | 11.3 | 0.00 | 0.00 | 0.00 | 48 | 1013.9 | |
| 20260906190614 | 35 | 142 | 3.2 | 11.3 | 0.00 | 0.00 | 0.00 | 49 | 1014.0 |
| 20260906190112 | 35 | 141 | 4.8 | 11.3 | 0.00 | 0.00 | 0.00 | 49 | 1014.0 |
| 20260906185610 | 34 | 140 | 1.6 | 14.5 | 0.00 | 0.00 | 0.00 | 50 | 1014.0 |
| 20260906185108 | 33 | 116 | 4.8 | 12.9 | 0.00 | 0.00 | 0.00 | 50 | 1014.0 |
| 20260906184604 | 33 | 117 | 1.6 | 12.9 | 0.00 | 0.00 | 0.00 | 50 | 1014.1 |
| 20260906184102 | 33 | 140 | 1.6 | 8.0 | 0.00 | 0.00 | 0.00 | 49 | 1014.1 |
| 20260906183600 | 33 | 140 | 3.2 | 8.0 | 0.00 | 0.00 | 0.00 | 50 | 1014.2 |
| 20260906183058 | 33 | 140 | 1.6 | 6.4 | 0.00 | 0.00 | 0.00 | 49 | 1014.3 |
| 20260906182554 | 33 | 140 | 1.6 | 4.8 | 0.00 | 0.00 | 0.00 | 47 | 1014.3 |
| 20260906182052 | 33 | 0.0 | 6.4 | 0.00 | 0.00 | 0.00 | 43 | 1014.4 | |
| 20260906181550 | 33 | 0.0 | 8.0 | 0.00 | 0.00 | 0.00 | 45 | 1014.4 | |
| 20260906181048 | 32 | 140 | 3.2 | 12.9 | 0.00 | 0.00 | 0.00 | 49 | 1014.6 |
| 20260906180544 | 32 | 140 | 3.2 | 12.9 | 0.00 | 0.00 | 0.00 | 52 | 1014.7 |
| 20260906180042 | 32 | 0.0 | 6.4 | 0.00 | 0.00 | 0.00 | 56 | 1014.8 | |
| 20260906175540 | 32 | 140 | 1.6 | 6.4 | 0.00 | 0.00 | 0.00 | 58 | 1014.9 |
| 20260906175038 | 32 | 0.0 | 4.8 | 0.00 | 0.00 | 0.00 | 57 | 1015.1 | |
| 20260906174534 | 31 | 0.0 | 1.6 | 0.00 | 0.00 | 0.00 | 59 | 1015.1 | |
| 20260906174032 | 31 | 0.0 | 6.4 | 0.00 | 0.00 | 0.00 | 61 | 1015.3 | |
| 20260906173530 | 31 | 0.0 | 8.0 | 0.00 | 0.00 | 0.00 | 62 | 1015.3 | |
| 20260906173028 | 31 | 140 | 1.6 | 12.9 | 0.00 | 0.00 | 0.00 | 62 | 1015.4 |
| 20260906172524 | 31 | 140 | 4.8 | 12.9 | 0.00 | 0.00 | 0.00 | 66 | 1015.4 |
| 20260906172022 | 30 | 139 | 3.2 | 8.0 | 0.00 | 0.00 | 0.00 | 67 | 1015.6 |
| 20260906171520 | 30 | 140 | 3.2 | 11.3 | 0.00 | 0.00 | 0.00 | 68 | 1015.7 |
| 20260906171018 | 30 | 140 | 4.8 | 11.3 | 0.00 | 0.00 | 0.00 | 67 | 1015.8 |
| 20260906170514 | 30 | 139 | 3.2 | 8.0 | 0.00 | 0.00 | 0.00 | 69 | 1015.9 |
| 20260906170012 | 30 | 139 | 3.2 | 8.0 | 0.00 | 0.00 | 0.00 | 70 | 1016.0 |
| 20260906165508 | 30 | 0.0 | 6.4 | 0.00 | 0.00 | 0.00 | 69 | 1015.9 | |
| 20260906165006 | 30 | 0.0 | 6.4 | 0.00 | 0.00 | 0.00 | 68 | 1016.0 | |
| 20260906164504 | 30 | 0.0 | 4.8 | 0.00 | 0.00 | 0.00 | 68 | 1016.1 | |
| 20260906164002 | 30 | 0.0 | 6.4 | 0.00 | 0.00 | 0.00 | 68 | 1016.0 | |
| 20260906163458 | 30 | 139 | 3.2 | 6.4 | 0.00 | 0.00 | 0.00 | 67 | 1016.0 |
| 20260906162956 | 30 | 139 | 1.6 | 4.8 | 0.00 | 0.00 | 0.00 | 67 | 1016.0 |
| 20260906162454 | 30 | 0.0 | 4.8 | 0.00 | 0.00 | 0.00 | 67 | 1016.0 | |
| 20260906161952 | 30 | 0.0 | 1.6 | 0.00 | 0.00 | 0.00 | 68 | 1016.0 | |
| 20260906161448 | 30 | 0.0 | 1.6 | 0.00 | 0.00 | 0.00 | 68 | 1016.0 | |
| 20260906160946 | 29 | 0.0 | 1.6 | 0.00 | 0.00 | 0.00 | 69 | 1016.0 | |
| 20260906160444 | 29 | 0.0 | 3.2 | 0.00 | 0.00 | 0.00 | 70 | 1016.0 | |
| 20260906155942 | 29 | 0.0 | 3.2 | 0.00 | 0.00 | 0.00 | 70 | 1016.0 | |
| 20260906155437 | 29 | 0.0 | 3.2 | 0.00 | 0.00 | 0.00 | 71 | 1015.9 | |
| 20260906154936 | 28 | 0.0 | 4.8 | 0.00 | 0.00 | 0.00 | 71 | 1015.8 | |
| 20260906154434 | 29 | 139 | 1.6 | 4.8 | 0.00 | 0.00 | 0.00 | 71 | 1015.8 |
| 20260906153931 | 29 | 0.0 | 0.0 | 0.00 | 0.00 | 0.00 | 69 | 1015.7 | |
| 20260906153427 | 28 | 0.0 | 0.0 | 0.00 | 0.00 | 0.00 | 69 | 1015.6 | |
| 20260906152926 | 28 | 0.0 | 4.8 | 0.00 | 0.00 | 0.00 | 69 | 1015.6 | |
| 20260906152423 | 28 | 139 | 1.6 | 6.4 | 0.00 | 0.00 | 0.00 | 70 | 1015.5 |
| 20260906151921 | 28 | 139 | 1.6 | 6.4 | 0.00 | 0.00 | 0.00 | 70 | 1015.4 |
| 20260906151417 | 28 | 139 | 3.2 | 6.4 | 0.00 | 0.00 | 0.00 | 70 | 1015.4 |
| 20260906150915 | 28 | 0.0 | 0.0 | 0.00 | 0.00 | 0.00 | 69 | 1015.3 | |
| 20260906150413 | 28 | 0.0 | 3.2 | 0.00 | 0.00 | 0.00 | 71 | 1015.3 | |
| 20260906145911 | 28 | 0.0 | 4.8 | 0.00 | 0.00 | 0.00 | 72 | 1015.3 | |
| 20260906145407 | 28 | 139 | 1.6 | 4.8 | 0.00 | 0.00 | 0.00 | 73 | 1015.3 |
| 20260906144905 | 28 | 139 | 1.6 | 3.2 | 0.00 | 0.00 | 0.00 | 73 | 1015.2 |
| 20260906144403 | 28 | 0.0 | 3.2 | 0.00 | 0.00 | 0.00 | 74 | 1015.2 | |
| 20260906143901 | 27 | 0.0 | 4.8 | 0.00 | 0.00 | 0.00 | 73 | 1015.2 | |
| 20260906143357 | 27 | 139 | 3.2 | 4.8 | 0.00 | 0.00 | 0.00 | 74 | 1015.2 |
| 20260906142855 | 27 | 0.0 | 3.2 | 0.00 | 0.00 | 0.00 | 75 | 1015.2 | |
| 20260906142351 | 27 | 0.0 | 3.2 | 0.00 | 0.00 | 0.00 | 76 | 1015.2 | |
| 20260906141849 | 27 | 0.0 | 3.2 | 0.00 | 0.00 | 0.00 | 77 | 1015.2 | |
| 20260906141347 | 27 | 0.0 | 0.0 | 0.00 | 0.00 | 0.00 | 78 | 1015.2 | |
| 20260906140845 | 27 | 0.0 | 0.0 | 0.00 | 0.00 | 0.00 | 79 | 1015.1 | |
| 20260906140341 | 27 | 0.0 | 0.0 | 0.00 | 0.00 | 0.00 | 79 | 1015.1 | |
| 20260906135839 | 27 | 0.0 | 0.0 | 0.00 | 0.00 | 0.00 | 79 | 1015.1 | |
| 20260906135337 | 27 | 0.0 | 0.0 | 0.00 | 0.00 | 0.00 | 80 | 1015.1 | |
| 20260906134835 | 26 | 0.0 | 0.0 | 0.00 | 0.00 | 0.00 | 81 | 1015.0 | |
| 20260906134331 | 26 | 0.0 | 0.0 | 0.00 | 0.00 | 0.00 | 81 | 1015.0 | |
| 20260906133829 | 26 | 0.0 | 0.0 | 0.00 | 0.00 | 0.00 | 81 | 1015.0 | |
| 20260906133327 | 26 | 0.0 | 0.0 | 0.00 | 0.00 | 0.00 | 81 | 1014.9 | |
| 20260906132825 | 26 | 0.0 | 0.0 | 0.00 | 0.00 | 0.00 | 81 | 1014.9 | |
| 20260906132321 | 26 | 0.0 | 0.0 | 0.00 | 0.00 | 0.00 | 81 | 1014.8 | |
| 20260906131819 | 26 | 0.0 | 0.0 | 0.00 | 0.00 | 0.00 | 81 | 1014.7 | |
| 20260906131317 | 26 | 0.0 | 0.0 | 0.00 | 0.00 | 0.00 | 81 | 1014.6 | |
| 20260906130815 | 26 | 0.0 | 0.0 | 0.00 | 0.00 | 0.00 | 81 | 1014.6 | |
| 20260906130311 | 26 | 0.0 | 0.0 | 0.00 | 0.00 | 0.00 | 82 | 1014.5 | |
| 20260906125809 | 26 | 0.0 | 0.0 | 0.00 | 0.00 | 0.00 | 82 | 1014.5 | |
| 20260906125307 | 25 | 0.0 | 0.0 | 0.00 | 0.00 | 0.00 | 83 | 1014.4 | |
| 20260906124805 | 25 | 0.0 | 0.0 | 0.00 | 0.00 | 0.00 | 84 | 1014.3 | |
| 20260906124301 | 25 | 0.0 | 0.0 | 0.00 | 0.00 | 0.00 | 84 | 1014.2 | |
| 20260906123759 | 25 | 0.0 | 0.0 | 0.00 | 0.00 | 0.00 | 84 | 1014.1 | |
| 20260906123257 | 25 | 0.0 | 0.0 | 0.00 | 0.00 | 0.00 | 84 | 1014.1 | |
| 20260906122755 | 25 | 0.0 | 0.0 | 0.00 | 0.00 | 0.00 | 84 | 1014.0 | |
| 20260906122251 | 25 | 0.0 | 0.0 | 0.00 | 0.00 | 0.00 | 84 | 1014.0 | |
| 20260906121749 | 25 | 0.0 | 0.0 | 0.00 | 0.00 | 0.00 | 83 | 1013.8 | |
| 20260906121247 | 25 | 0.0 | 0.0 | 0.00 | 0.00 | 0.00 | 83 | 1013.7 | |
| 20260906120745 | 25 | 0.0 | 0.0 | 0.00 | 0.00 | 0.00 | 83 | 1013.6 | |
| 20260906120241 | 25 | 0.0 | 0.0 | 0.00 | 0.00 | 0.00 | 83 | 1013.5 | |
| 20260906115739 | 25 | 0.0 | 0.0 | 0.00 | 0.00 | 0.00 | 83 | 1013.4 | |
| 20260906115237 | 25 | 0.0 | 0.0 | 0.00 | 0.00 | 0.00 | 82 | 1013.3 | |
| 20260906114733 | 25 | 0.0 | 0.0 | 0.00 | 0.00 | 0.00 | 82 | 1013.2 | |
| 20260906114231 | 25 | 0.0 | 0.0 | 0.00 | 0.00 | 0.00 | 82 | 1013.2 | |
| 20260906113729 | 25 | 0.0 | 0.0 | 0.00 | 0.00 | 0.00 | 82 | 1013.2 | |
| 20260906113225 | 25 | 0.0 | 0.0 | 0.00 | 0.00 | 0.00 | 81 | 1013.1 | |
| 20260906112723 | 25 | 0.0 | 0.0 | 0.00 | 0.00 | 0.00 | 81 | 1013.2 | |
| 20260906112221 | 25 | 0.0 | 0.0 | 0.00 | 0.00 | 0.00 | 80 | 1013.1 | |
| 20260906111719 | 25 | 0.0 | 0.0 | 0.00 | 0.00 | 0.00 | 80 | 1013.1 | |
| 20260906111215 | 25 | 0.0 | 0.0 | 0.00 | 0.00 | 0.00 | 80 | 1013.1 | |
| 20260906110713 | 25 | 0.0 | 0.0 | 0.00 | 0.00 | 0.00 | 79 | 1013.0 | |
| 20260906110211 | 26 | 0.0 | 0.0 | 0.00 | 0.00 | 0.00 | 79 | 1013.0 | |
| 20260906105709 | 26 | 0.0 | 0.0 | 0.00 | 0.00 | 0.00 | 79 | 1013.0 | |
| 20260906105205 | 26 | 0.0 | 0.0 | 0.00 | 0.00 | 0.00 | 79 | 1013.1 | |
| 20260906104703 | 26 | 0.0 | 0.0 | 0.00 | 0.00 | 0.00 | 78 | 1013.0 | |
| 20260906104201 | 26 | 0.0 | 0.0 | 0.00 | 0.00 | 0.00 | 78 | 1013.0 | |
| 20260906103659 | 26 | 0.0 | 0.0 | 0.00 | 0.00 | 0.00 | 78 | 1012.9 | |
| 20260906103155 | 26 | 0.0 | 0.0 | 0.00 | 0.00 | 0.00 | 77 | 1012.9 | |
| 20260906102653 | 26 | 0.0 | 0.0 | 0.00 | 0.00 | 0.00 | 77 | 1012.8 | |
| 20260906102151 | 26 | 0.0 | 0.0 | 0.00 | 0.00 | 0.00 | 77 | 1012.9 | |
| 20260906101649 | 26 | 0.0 | 0.0 | 0.00 | 0.00 | 0.00 | 77 | 1012.8 | |
| 20260906101145 | 26 | 0.0 | 0.0 | 0.00 | 0.00 | 0.00 | 77 | 1012.8 | |
| 20260906100643 | 26 | 0.0 | 0.0 | 0.00 | 0.00 | 0.00 | 77 | 1012.7 | |
| 20260906100141 | 26 | 0.0 | 0.0 | 0.00 | 0.00 | 0.00 | 77 | 1012.7 | |
| 20260906095639 | 26 | 0.0 | 0.0 | 0.00 | 0.00 | 0.00 | 76 | 1012.8 | |
| 20260906095135 | 26 | 0.0 | 0.0 | 0.00 | 0.00 | 0.00 | 76 | 1012.8 | |
| 20260906094633 | 26 | 0.0 | 0.0 | 0.00 | 0.00 | 0.00 | 76 | 1012.8 | |
| 20260906094131 | 26 | 0.0 | 0.0 | 0.00 | 0.00 | 0.00 | 76 | 1012.7 | |
| 20260906093629 | 27 | 0.0 | 3.2 | 0.00 | 0.00 | 0.00 | 76 | 1012.6 | |
| 20260906093125 | 27 | 0.0 | 3.2 | 0.00 | 0.00 | 0.00 | 75 | 1012.7 | |
| 20260906092623 | 27 | 0.0 | 3.2 | 0.00 | 0.00 | 0.00 | 75 | 1012.7 | |
| 20260906092121 | 27 | 0.0 | 3.2 | 0.00 | 0.00 | 0.00 | 75 | 1012.7 | |
| 20260906091619 | 27 | 139 | 1.6 | 3.2 | 0.00 | 0.00 | 0.00 | 75 | 1012.6 |
| 20260906091115 | 27 | 0.0 | 0.0 | 0.00 | 0.00 | 0.00 | 75 | 1012.6 | |
| 20260906090613 | 27 | 0.0 | 11.3 | 0.00 | 0.00 | 0.00 | 75 | 1012.6 | |
| 20260906090109 | 27 | 139 | 1.6 | 11.3 | 0.00 | 0.00 | 0.00 | 75 | 1012.7 |
| 20260906085607 | 27 | 139 | 3.2 | 8.0 | 0.00 | 0.00 | 0.00 | 75 | 1012.6 |
| 20260906085105 | 27 | 139 | 1.6 | 6.4 | 0.00 | 0.00 | 0.00 | 74 | 1012.6 |
| 20260906084603 | 27 | 0.0 | 8.0 | 0.00 | 0.00 | 0.00 | 74 | 1012.7 | |
| 20260906084059 | 27 | 139 | 1.6 | 8.0 | 0.00 | 0.00 | 0.00 | 74 | 1012.7 |
| 20260906083557 | 27 | 139 | 1.6 | 4.8 | 0.00 | 0.00 | 0.00 | 74 | 1012.7 |
| 20260906083055 | 27 | 139 | 1.6 | 4.8 | 0.00 | 0.00 | 0.00 | 74 | 1012.7 |
| 20260906082553 | 27 | 0.0 | 4.8 | 0.00 | 0.00 | 0.00 | 74 | 1012.7 | |
| 20260906082049 | 27 | 0.0 | 4.8 | 0.00 | 0.00 | 0.00 | 74 | 1012.7 | |
| 20260906081547 | 27 | 0.0 | 4.8 | 0.00 | 0.00 | 0.00 | 73 | 1012.7 | |
| 20260906081045 | 28 | 139 | 1.6 | 6.4 | 0.00 | 0.00 | 0.00 | 73 | 1012.7 |
| 20260906080543 | 28 | 139 | 1.6 | 8.0 | 0.00 | 0.00 | 0.00 | 73 | 1012.8 |
| 20260906080039 | 28 | 139 | 3.2 | 8.0 | 0.00 | 0.00 | 0.00 | 73 | 1012.8 |
| 20260906075537 | 28 | 139 | 1.6 | 6.4 | 0.00 | 0.00 | 0.00 | 73 | 1012.8 |
| 20260906075035 | 28 | 139 | 1.6 | 8.0 | 0.00 | 0.00 | 0.00 | 73 | 1012.9 |
| 20260906074533 | 28 | 139 | 3.2 | 8.0 | 0.00 | 0.00 | 0.00 | 73 | 1013.0 |
| 20260906074029 | 28 | 139 | 1.6 | 6.4 | 0.00 | 0.00 | 0.00 | 73 | 1013.1 |
| 20260906073527 | 28 | 139 | 1.6 | 4.8 | 0.00 | 0.00 | 0.00 | 73 | 1013.1 |
| 20260906073025 | 28 | 139 | 3.2 | 6.4 | 0.00 | 0.00 | 0.00 | 73 | 1013.2 |
| 20260906072523 | 28 | 139 | 3.2 | 6.4 | 0.00 | 0.00 | 0.00 | 73 | 1013.2 |
| 20260906072019 | 28 | 0.0 | 8.0 | 0.00 | 0.00 | 0.00 | 73 | 1013.3 | |
| 20260906071517 | 28 | 0.0 | 8.0 | 0.00 | 0.00 | 0.00 | 73 | 1013.2 | |
| 20260906071015 | 28 | 139 | 3.2 | 6.4 | 0.00 | 0.00 | 0.00 | 73 | 1013.4 |
| 20260906070513 | 28 | 0.0 | 6.4 | 0.00 | 0.00 | 0.00 | 73 | 1013.4 | |
| 20260906070009 | 28 | 139 | 3.2 | 8.0 | 0.00 | 0.00 | 0.00 | 73 | 1013.6 |
| 20260906065507 | 28 | 139 | 3.2 | 8.0 | 0.00 | 0.00 | 0.00 | 73 | 1013.5 |
| 20260906065005 | 28 | 139 | 1.6 | 8.0 | 0.00 | 0.00 | 0.00 | 74 | 1013.6 |
| 20260906064503 | 27 | 139 | 1.6 | 6.4 | 0.00 | 0.00 | 0.00 | 73 | 1013.6 |
| 20260906063959 | 27 | 139 | 1.6 | 6.4 | 0.00 | 0.00 | 0.00 | 73 | 1013.7 |
| 20260906063457 | 27 | 139 | 1.6 | 6.4 | 0.00 | 0.00 | 0.00 | 74 | 1013.7 |
| 20260906062953 | 27 | 139 | 1.6 | 6.4 | 0.00 | 0.00 | 0.00 | 74 | 1013.7 |
| 20260906062451 | 27 | 0.0 | 4.8 | 0.00 | 0.00 | 0.00 | 74 | 1013.6 | |
| 20260906061949 | 27 | 0.0 | 4.8 | 0.00 | 0.00 | 0.00 | 74 | 1013.6 | |
| 20260906061447 | 27 | 139 | 1.6 | 3.2 | 0.00 | 0.00 | 0.00 | 74 | 1013.5 |
| 20260906060943 | 27 | 0.0 | 3.2 | 0.00 | 0.00 | 0.00 | 74 | 1013.6 | |
| 20260906060441 | 27 | 0.0 | 1.6 | 0.00 | 0.00 | 0.00 | 73 | 1013.7 | |
| 20260906055939 | 27 | 0.0 | 0.0 | 0.00 | 0.00 | 0.00 | 73 | 1013.8 | |
| 20260906055437 | 28 | 0.0 | 0.0 | 0.00 | 0.00 | 0.00 | 73 | 1013.9 | |
| 20260906054933 | 28 | 0.0 | 3.2 | 0.00 | 0.00 | 0.00 | 73 | 1013.9 | |
| 20260906054431 | 28 | 0.0 | 3.2 | 0.00 | 0.00 | 0.00 | 73 | 1013.9 | |
| 20260906053929 | 28 | 0.0 | 3.2 | 0.00 | 0.00 | 0.00 | 72 | 1013.8 | |
| 20260906053427 | 28 | 0.0 | 3.2 | 0.00 | 0.00 | 0.00 | 72 | 1013.7 | |
| 20260906052923 | 28 | 0.0 | 3.2 | 0.00 | 0.00 | 0.00 | 72 | 1013.7 | |
| 20260906052421 | 28 | 0.0 | 3.2 | 0.00 | 0.00 | 0.00 | 72 | 1013.7 | |
| 20260906051919 | 28 | 0.0 | 1.6 | 0.00 | 0.00 | 0.00 | 72 | 1013.8 | |
| 20260906051417 | 28 | 139 | 1.6 | 3.2 | 0.00 | 0.00 | 0.00 | 72 | 1013.8 |
| 20260906050913 | 28 | 0.0 | 3.2 | 0.00 | 0.00 | 0.00 | 72 | 1013.9 | |
| 20260906050411 | 28 | 0.0 | 0.0 | 0.00 | 0.00 | 0.00 | 71 | 1013.9 | |
| 20260906045908 | 28 | 0.0 | 0.0 | 0.00 | 0.00 | 0.00 | 71 | 1014.0 | |
| 20260906045406 | 28 | 0.0 | 1.6 | 0.00 | 0.00 | 0.00 | 71 | 1014.1 | |
| 20260906044902 | 28 | 0.0 | 1.6 | 0.00 | 0.00 | 0.00 | 71 | 1014.2 | |
| 20260906044400 | 28 | 0.0 | 4.8 | 0.00 | 0.00 | 0.00 | 70 | 1014.1 | |
| 20260906043858 | 28 | 0.0 | 8.0 | 0.00 | 0.00 | 0.00 | 70 | 1014.0 | |
| 20260906043356 | 28 | 139 | 1.6 | 8.0 | 0.00 | 0.00 | 0.00 | 70 | 1014.0 |
| 20260906042852 | 28 | 0.0 | 1.6 | 0.00 | 0.00 | 0.00 | 70 | 1014.0 | |
| 20260906042350 | 28 | 0.0 | 4.8 | 0.00 | 0.00 | 0.00 | 69 | 1013.9 | |
| 20260906041848 | 28 | 0.0 | 4.8 | 0.00 | 0.00 | 0.00 | 69 | 1013.9 | |
| 20260906041346 | 28 | 0.0 | 3.2 | 0.00 | 0.00 | 0.00 | 69 | 1013.8 | |
| 20260906040842 | 28 | 0.0 | 4.8 | 0.00 | 0.00 | 0.00 | 68 | 1013.7 | |
| 20260906040340 | 28 | 0.0 | 4.8 | 0.00 | 0.00 | 0.00 | 67 | 1013.7 | |
| 20260906035838 | 28 | 139 | 1.6 | 6.4 | 0.00 | 0.00 | 0.00 | 67 | 1013.7 |
| 20260906035336 | 29 | 139 | 1.6 | 6.4 | 0.00 | 0.00 | 0.00 | 66 | 1013.8 |
| 20260906034832 | 29 | 0.0 | 6.4 | 0.00 | 0.00 | 0.00 | 65 | 1013.7 | |
| 20260906034330 | 29 | 139 | 1.6 | 6.4 | 0.00 | 0.00 | 0.00 | 65 | 1013.8 |
| 20260906033828 | 29 | 139 | 1.6 | 11.3 | 0.00 | 0.00 | 0.00 | 65 | 1013.8 |
| 20260906033326 | 29 | 139 | 1.6 | 4.8 | 0.00 | 0.00 | 0.00 | 64 | 1013.7 |
| 20260906032822 | 30 | 139 | 1.6 | 11.3 | 0.00 | 0.00 | 0.00 | 64 | 1013.9 |
| 20260906032320 | 30 | 139 | 1.6 | 11.3 | 0.00 | 0.00 | 0.00 | 63 | 1013.8 |
| 20260906031818 | 30 | 139 | 1.6 | 6.4 | 0.00 | 0.00 | 0.00 | 63 | 1013.7 |
| 20260906031314 | 30 | 0.0 | 6.4 | 0.00 | 0.00 | 0.00 | 62 | 1013.7 | |
| 20260906030812 | 30 | 139 | 3.2 | 6.4 | 0.00 | 0.00 | 0.00 | 62 | 1013.6 |
| 20260906030310 | 30 | 139 | 1.6 | 6.4 | 0.00 | 0.00 | 0.00 | 61 | 1013.5 |
| 20260906025806 | 30 | 0.0 | 6.4 | 0.00 | 0.00 | 0.00 | 61 | 1013.4 | |
| 20260906025306 | 30 | 139 | 1.6 | 6.4 | 0.00 | 0.00 | 0.00 | 60 | 1013.2 |
| 20260906024802 | 30 | 0.0 | 8.0 | 0.00 | 0.00 | 0.00 | 59 | 1013.2 | |
| 20260906024300 | 30 | 139 | 1.6 | 12.9 | 0.00 | 0.00 | 0.00 | 58 | 1013.1 |
| 20260906023756 | 30 | 138 | 3.2 | 12.9 | 0.00 | 0.00 | 0.00 | 57 | 1013.0 |
| 20260906023254 | 30 | 138 | 1.6 | 4.8 | 0.00 | 0.00 | 0.00 | 57 | 1012.9 |
| 20260906022752 | 31 | 0.0 | 6.4 | 0.00 | 0.00 | 0.00 | 56 | 1012.8 | |
| 20260906022250 | 31 | 0.0 | 11.3 | 0.00 | 0.00 | 0.00 | 56 | 1012.6 | |
| 20260906021746 | 31 | 0.0 | 11.3 | 0.00 | 0.00 | 0.00 | 55 | 1012.5 | |
| 20260906021244 | 31 | 0.0 | 3.2 | 0.00 | 0.00 | 0.00 | 55 | 1012.4 | |
| 20260906020742 | 31 | 0.0 | 4.8 | 0.00 | 0.00 | 0.00 | 55 | 1012.3 | |
| 20260906020240 | 31 | 0.0 | 4.8 | 0.00 | 0.00 | 0.00 | 55 | 1012.3 | |
| 20260906015736 | 31 | 138 | 1.6 | 6.4 | 0.00 | 0.00 | 0.00 | 55 | 1012.2 |
| 20260906015234 | 31 | 138 | 1.6 | 8.0 | 0.00 | 0.00 | 0.00 | 54 | 1012.0 |
| 20260906014732 | 31 | 0.0 | 8.0 | 0.00 | 0.00 | 0.00 | 54 | 1012.0 | |
| 20260906014230 | 32 | 0.0 | 4.8 | 0.00 | 0.00 | 0.00 | 53 | 1011.8 | |
| 20260906013725 | 32 | 1.6 | 12.9 | 0.00 | 0.00 | 0.00 | 53 | 1011.9 | |
| 20260906013225 | 32 | 0.0 | 12.9 | 0.00 | 0.00 | 0.00 | 53 | 1011.9 | |
| 20260906012723 | 32 | 137 | 4.8 | 12.9 | 0.00 | 0.00 | 0.00 | 52 | 1011.8 |
| 20260906012221 | 32 | 0.0 | 8.0 | 0.00 | 0.00 | 0.00 | 53 | 1011.7 | |
| 20260906011717 | 32 | 0.0 | 8.0 | 0.00 | 0.00 | 0.00 | 52 | 1011.6 | |
| 20260906011215 | 32 | 175 | 1.6 | 8.0 | 0.00 | 0.00 | 0.00 | 52 | 1011.6 |
| 20260906010713 | 32 | 175 | 1.6 | 4.8 | 0.00 | 0.00 | 0.00 | 52 | 1011.6 |
| 20260906010211 | 33 | 0.0 | 3.2 | 0.00 | 0.00 | 0.00 | 52 | 1011.5 | |
| 20260906005707 | 33 | 175 | 1.6 | 9.7 | 0.00 | 0.00 | 0.00 | 51 | 1011.5 |
| 20260906005205 | 33 | 175 | 1.6 | 9.7 | 0.00 | 0.00 | 0.00 | 51 | 1011.5 |
| 20260906004703 | 33 | 0.0 | 6.4 | 0.00 | 0.00 | 0.00 | 50 | 1011.5 | |
| 20260906004201 | 33 | 175 | 1.6 | 6.4 | 0.00 | 0.00 | 0.00 | 50 | 1011.6 |
| 20260906003657 | 33 | 176 | 1.6 | 6.4 | 0.00 | 0.00 | 0.00 | 49 | 1011.6 |
| 20260906003155 | 34 | 0.0 | 4.8 | 0.00 | 0.00 | 0.00 | 49 | 1011.6 | |
| 20260906002653 | 34 | 176 | 1.6 | 6.4 | 0.00 | 0.00 | 0.00 | 49 | 1011.5 |
| 20260906002151 | 34 | 176 | 1.6 | 6.4 | 0.00 | 0.00 | 0.00 | 48 | 1011.4 |
| 20260906001647 | 34 | 1.6 | 11.3 | 0.00 | 0.00 | 0.00 | 47 | 1011.4 | |
| 20260906001145 | 35 | 179 | 1.6 | 12.9 | 0.00 | 0.00 | 0.00 | 46 | 1011.4 |
| 20260906000643 | 35 | 1.6 | 6.4 | 0.00 | 0.00 | 0.00 | 45 | 1011.4 | |
| 20260906000141 | 35 | 181 | 1.6 | 6.4 | 0.00 | 0.00 | 0.00 | 42 | 1011.4 |
| 20260905235637 | 35 | 0.0 | 0.0 | 0.00 | 0.00 | 0.00 | 41 | 1011.4 | |
| 20260905235135 | 35 | 0.0 | 4.8 | 0.00 | 0.00 | 0.00 | 41 | 1011.3 | |
| 20260905234631 | 36 | 0.0 | 4.8 | 0.00 | 0.00 | 0.00 | 39 | 1011.2 | |
| 20260905234129 | 36 | 181 | 1.6 | 4.8 | 0.00 | 0.00 | 0.00 | 40 | 1011.1 |